Other Public Products
Issued by NWS Grand Forks, ND

Home | Current Version | Previous Version | Graphics & Text | Print | Product List | Glossary On
Versions: 1 2 3 4 5 6 7 8 9 10 11 12 13 14 15 16 17 18 19 20 21 22 23 24 25 26 27 28 29 30 31 32 33 34 35 36 37 38 39 40 41 42 43 44 45 46 47 48 49 50
000
FPUS83 KFGF 280031
OPUFGF
PRAIRIE TO PINES WEATHER ROUNDUP
NATIONAL WEATHER SERVICE EASTERN NORTH DAKOTA/GRAND FORKS ND
700 PM CDT WED APR 27 2016

 **SATELLITE DATA USED TO AUGMENT SKY COVER AT AUTOMATED STATIONS**
 *****  WEATHER ACROSS EASTERN NORTH DAKOTA  *****

CITY           SKY/WX    TMP DP  RH WIND       PRES   REMARKS
GRAND FORKS    CLOUDY    54  29  38 NE20      29.97R
6HR MIN TEMP:  53; 6HR MAX TEMP:  59;

GRAND FORKS AF CLOUDY    54  27  34 NE18G24   29.97R
GRAND CITY NWS NOT AVBL
BUXTON           N/A     54  21  27 NE16        N/A
DEVILS LAKE    PTSUNNY   53  25  33 E16G24    29.98R
6HR MIN TEMP:  51; 6HR MAX TEMP:  55;

FARGO          CLOUDY    56  25  30 E14       29.90R
6HR MIN TEMP:  54; 6HR MAX TEMP:  57;

WAHPETON ARPT  CLOUDY    46  23  39 E17G25    29.90R
$$

 *****  WEATHER ACROSS CENTRAL AND WESTERN NORTH DAKOTA  *****

CITY           SKY/WX    TMP DP  RH WIND       PRES   REMARKS
JAMESTOWN      PTSUNNY   50  29  44 NE21      29.89S
6HR MIN TEMP:  46; 6HR MAX TEMP:  52;

BISMARCK       CLOUDY    49  29  46 NE10      29.93R
6HR MIN TEMP:  44; 6HR MAX TEMP:  49;

MINOT          CLOUDY    57  22  25 NE16G23   29.99R
6HR MIN TEMP:  56; 6HR MAX TEMP:  59;

MINOT AFB      CLOUDY    54  23  29 E17G23    29.98R
6HR MIN TEMP:  53; 6HR MAX TEMP:  56;

GARRISON         N/A     50  23  34 E12G22    29.96R
6HR MIN TEMP:  44; 6HR MAX TEMP:  52;

WILLISTON      CLOUDY    52  25  35 NE9       30.01S
6HR MIN TEMP:  47; 6HR MAX TEMP:  52;

DICKINSON      CLOUDY    38  30  73 NE12      29.93R
6HR MIN TEMP:  32; 6HR MAX TEMP:  39; 6HR PCP:  0.01;

HETTINGER      LGT SNOW  33  31  92 E9        29.96R VSB 3/4
6HR MIN TEMP:  34; 6HR MAX TEMP:  37; 6HR PCP:  0.03;

$$

 *****  OTHER OBSERVATIONS NORTHEAST NORTH DAKOTA  *****

CITY           SKY/WX    TMP DP  RH WIND       PRES   REMARKS
WALHALLA       FAIR      55  25  30 E14       30.03S
LANGDON        FAIR      52  25  35 NE16G25   30.02R
CAVALIER       FAIR      55  25  30 NE13G21   30.02S
GRAFTON        FAIR      54  25  32 NE22      30.01S
CANDO          FAIR      54  23  30 NE18G24   30.02R
FORT TOTTEN      N/A     52  22  31 E9        29.95S
ROLLA          FAIR      52  21  30 NE24      30.03S
RUGBY          FAIR      54  27  35 E20       29.99R
 ***** THE ABOVE OBSERVATIONS ARE NON NWS ARE NOT QUALITY
        CONTROLLED AND MAY MIS-REPORT RAIN FOR SNOW...
$$

 *****  OTHER OBSERVATIONS SOUTHEAST NORTH DAKOTA *****

CITY           SKY/WX    TMP DP  RH WIND       PRES   REMARKS
COOPERSTOWN    NOT AVBL
VALLEY CITY    FAIR      50  28  43 NE16G24   29.92R
OAKES            N/A    N/A N/A N/A MISG        N/A
GWINNER        FAIR      46  32  57 E23G36    29.89R
BUFFALO          N/A     51  22  32 NE12        N/A
WYNDMERE         N/A     48  30  49 E15         N/A
 ***** THE ABOVE OBSERVATIONS ARE NON NWS ARE NOT QUALITY
       CONTROLLED AND MAY MIS-REPORT RAIN FOR SNOW...
$$

  *****  WEATHER ACROSS NORTHERN MINNESOTA  *****

CITY           SKY/WX    TMP DP  RH WIND       PRES   REMARKS
FLAG ISLAND    CLOUDY    52  18  25 NE13      30.05S
WARROAD        CLOUDY    48  25  40 NE14G21   30.05S
ROSEAU         CLOUDY    52  27  37 NE15G21   30.04S
HALLOCK        CLOUDY    55  16  21 E16       30.01F
THF RVR FALLS  CLOUDY    54  21  28 E14G23    29.99R
6HR MIN TEMP:  52; 6HR MAX TEMP:  55;

HALSTAD        NOT AVBL
FOSSTON        CLOUDY    52  23  32 NE10G17   29.95R
BAUDETTE       PTSUNNY   53  17  24 NE14      30.02S
6HR MIN TEMP:  52; 6HR MAX TEMP:  58;

WASKISH        MOSUNNY   54  25  32 NE14      30.00R
CROOKSTON      CLOUDY    55  25  30 E17G23    29.97R
$$
  *****  WEATHER ACROSS CENTRAL AND WEST MINNESOTA  *****

CITY           SKY/WX    TMP DP  RH WIND       PRES   REMARKS
BEMIDJI        MOSUNNY   53  22  30 E14       29.95S
PARK RAPIDS    CLOUDY    52  18  26 E14G24    29.93R
6HR MIN TEMP:  51; 6HR MAX TEMP:  55;

WADENA         PTSUNNY   46  18  31 E13G20    29.90S
DETROIT LAKES  CLOUDY    54  21  28 E16G23    29.91R
MOORHEAD       CLOUDY    54  25  32 E15       29.91S
FERGUS FALLS   DRIZZLE   46  21  36 E14G24    29.87S
ELBOW LAKE     DRIZZLE   46  26  44 E14G23    29.87S
MORRIS MN      DRIZZLE   45  36  70 E13       29.85S
STAPLES        PTSUNNY   45   9  23 E12G20    29.92S
WHEATON        LGT RAIN  45  36  70 E12G21    29.90R
$$
  *****  WEATHER ELSEWHERE ACROSS MINNESOTA  *****

CITY           SKY/WX    TMP DP  RH WIND       PRES   REMARKS
DULUTH         CLOUDY    40  12  32 E15G25    30.01S
6HR MIN TEMP:  40; 6HR MAX TEMP:  45;

INTRNTL FALLS  CLOUDY    53  17  24 NE9       30.03R
6HR MIN TEMP:  50; 6HR MAX TEMP:  55;

ELY            CLOUDY    52  10  19 NE6       30.02R
CLOQUET        PTSUNNY   43   0  16 E10G21    30.01R
BRAINERD       CLOUDY    45   6  20 E15G28    29.94F
6HR MIN TEMP:  45; 6HR MAX TEMP:  51;

HIBBING        MOSUNNY   48  19  31 SE10      29.99S
6HR MIN TEMP:  48; 6HR MAX TEMP:  53;

ALEXANDRIA     LGT RAIN  43  27  53 E18G29    29.87R
6HR MIN TEMP:  43; 6HR MAX TEMP:  50; 6HR PCP: TRACE;

SAINT CLOUD    LGT RAIN  46  31  55 NE10      29.87S
6HR MIN TEMP:  46; 6HR MAX TEMP:  52; 6HR PCP:  0.01;

MINNEAPOLIS    LGT RAIN  44  39  82 E15       29.87S
6HR MIN TEMP:  44; 6HR MAX TEMP:  53; 6HR PCP:  0.27;

$$

  *****  WEATHER ACROSS SOUTH DAKOTA  *****

CITY           SKY/WX    TMP DP  RH WIND       PRES   REMARKS
SIOUX FALLS    CLOUDY    42  39  89 E16G32    29.68S
6HR MIN TEMP:  41; 6HR MAX TEMP:  43; 6HR PCP:  0.12;

BROOKINGS      LGT RAIN  40  36  86 E24G32    29.75R
WATERTOWN      CLOUDY    40  35  83 E17G25    29.79R
6HR MIN TEMP:  38; 6HR MAX TEMP:  40; 6HR PCP:  0.16;

HURON          RAIN      40  37  89 E13G23    29.77R FOG
6HR MIN TEMP:  39; 6HR MAX TEMP:  41; 6HR PCP:  0.31;

SISSETON         N/A     42  36  79 SE16      29.86R
ABERDEEN       LGT RAIN  40  36  86 NE14      29.88S FOG
6HR MIN TEMP:  40; 6HR MAX TEMP:  45; 6HR PCP:  0.31;

MITCHELL       LGT RAIN  42  40  92 NE13      29.72S FOG
PIERRE         CLOUDY    38  35  89 NE18G25   29.79R
6HR MIN TEMP:  37; 6HR MAX TEMP:  39; 6HR PCP:  0.19;

MOBRIDGE       LGT RAIN  36  33  89 NE14      29.87F FOG
RAPID CITY     LGT SNOW  32  31  96 N17G25    29.86S VSB 3/4 WCI  21
6HR MIN TEMP:  32; 6HR MAX TEMP:  37; 6HR PCP:  0.12;

$$

  *****  SOME WEATHER IN NEARBY STATES *****

CITY           SKY/WX    TMP DP  RH WIND       PRES   REMARKS
GLASGOW MT     LGT RAIN  41  37  86 SE3       30.05S
6HR MIN TEMP:  39; 6HR MAX TEMP:  41; 6HR PCP:  0.16;

GREAT FALLS MT CLOUDY    38  34  85 NE10      30.03S
6HR MIN TEMP:  35; 6HR MAX TEMP:  39; 6HR PCP:  0.08;

CHEYENNE WY    SUNNY     40  26  57 N24G32    29.81R
6HR MIN TEMP:  35; 6HR MAX TEMP:  42;

SCOTTSBLUFF NE PTSUNNY   45  30  55 NW23G33   29.81S
6HR MIN TEMP:  45; 6HR MAX TEMP:  50;

OMAHA NE       CLOUDY    53  49  86 S9        29.52R
6HR MIN TEMP:  53; 6HR MAX TEMP:  64; 6HR PCP:  0.61;

DES MOINES IA  HAIL      52  49  89 SW17G23   29.66R VSB 1
6HR MIN TEMP:  49; 6HR MAX TEMP:  53; 6HR PCP:  0.01;

DAVENPORT IA   CLOUDY    47  44  90 E24G35    29.72F FOG
6HR MIN TEMP:  47; 6HR MAX TEMP:  50; 6HR PCP:  0.04;

CHICAGO IL     RAIN      41  38  89 N16       29.85F FOG
6HR MIN TEMP:  41; 6HR MAX TEMP:  49; 6HR PCP:  0.18;

EAU CLAIRE WI  LGT RAIN  48  31  51 E13       29.90F
6HR MIN TEMP:  48; 6HR MAX TEMP:  56; 6HR PCP:  0.01;

LA CROSSE WI   CLOUDY    45  38  76 E9        29.87S
6HR MIN TEMP:  45; 6HR MAX TEMP:  57; 6HR PCP:  0.17;

$$

  *****  SOME NATIONAL WEATHER *****

CITY           SKY/WX    TMP DP  RH WIND       PRES   REMARKS
LA GUARDIA NY  FAIR      54  42  64 S15       29.86F
6HR MIN TEMP:  54; 6HR MAX TEMP:  60;

RALEIGH NC     MOCLDY    76  62  62 N8G17     29.82R               C1F1C2F2C3F3C4F4C5F5C6F6C7F7C8F8C9F9CaFaCbFbCcFcCdFdCe!



USA.gov is the U.S. government's official web portal to all federal, state and local government web resources and services.